This is the latest recevied weather packets stored in our database for station/object NK2J. If no packets are shown the sender has not sent any weather packets the latest 10 day(s).
| Time | Temp. | Humidity | Pressure | Rain* | Wind** | Luminosity | Snow |
|---|---|---|---|---|---|---|---|
| 1777443015 | 22.78° C | 19% | 1016.4 hPa | 0 mm | - | 0 W/m² | - |
| 1777442712 | 22.78° C | 20% | 1016.3 hPa | 0 mm | - | 0 W/m² | - |
| 1777442408 | 23.33° C | 19% | 1016.2 hPa | 0 mm | - | 0 W/m² | - |
| 1777442104 | 23.33° C | 19% | 1016.3 hPa | 0 mm | - | 0 W/m² | - |
| 1777441799 | 23.33° C | 19% | 1016.5 hPa | 0 mm | - | 0 W/m² | - |
| 1777441495 | 23.33° C | 19% | 1016.3 hPa | 0 mm | - | 0 W/m² | - |
| 1777441191 | 23.33° C | 19% | 1016.3 hPa | 0 mm | - | 0 W/m² | - |
| 1777440891 | 23.89° C | 19% | 1016.3 hPa | 0 mm | - | 0 W/m² | - |
| 1777440588 | 23.89° C | 19% | 1016.3 hPa | 0 mm | - | 0 W/m² | - |
| 1777440283 | 23.89° C | 19% | 1016.3 hPa | 0 mm | - | 0 W/m² | - |
| 1777439980 | 23.33° C | 20% | 1016.3 hPa | 0 mm | - | 0 W/m² | - |
| 1777439676 | 23.33° C | 19% | 1016.3 hPa | 0 mm | - | 0 W/m² | - |
| 1777439372 | 23.89° C | 19% | 1016.4 hPa | 0 mm | - | 0 W/m² | - |
| 1777439072 | 23.89° C | 20% | 1016.3 hPa | 0 mm | - | 0 W/m² | - |
| 1777438770 | 23.89° C | 20% | 1016.3 hPa | 0 mm | - | 0 W/m² | - |
| 1777438466 | 23.89° C | 19% | 1016.2 hPa | 0 mm | - | 0 W/m² | - |
| 1777438162 | 24.44° C | 19% | 1016.2 hPa | 0 mm | - | 0 W/m² | - |
| 1777437858 | 24.44° C | 19% | 1016.3 hPa | 0 mm | - | 0 W/m² | - |
| 1777437554 | 24.44° C | 19% | 1016.3 hPa | 0 mm | - | 0 W/m² | - |
| 1777437252 | 24.44° C | 20% | 1016.2 hPa | 0 mm | - | 0 W/m² | - |
| 1777436948 | 24.44° C | 19% | 1016.1 hPa | 0 mm | - | 0 W/m² | - |
| 1777436645 | 24.44° C | 20% | 1016.1 hPa | 0 mm | - | 0 W/m² | - |
| 1777436341 | 24.44° C | 20% | 1016.1 hPa | 0 mm | - | 0 W/m² | - |
| 1777436036 | 24.44° C | 20% | 1016.2 hPa | 0 mm | - | 0 W/m² | - |
| 1777435733 | 25° C | 19% | 1016 hPa | 0 mm | - | 0 W/m² | - |
* Rain latest hour (hover to see other rain measurements)
** Current wind speed in m/s (hover to see current wind gust speed)